| time (UTC) | temp F | wind direction | speed MPH | gust MPH | rain 1hr in | rain 24hr in | rain mn in | humidity % | barometer mb |
| 20260504024217 | 66 | 0 | 6.0 | 11.0 | 0.00 | 0.00 | 0.00 | 23 | 997.9 |
| 20260504023217 | 66 | 0 | 3.0 | 6.0 | 0.00 | 0.00 | 0.00 | 22 | 998.1 |
| 20260504022217 | 67 | 0 | 5.0 | 9.0 | 0.00 | 0.00 | 0.00 | 21 | 998.3 |
| 20260504021237 | 67 | 0 | 5.0 | 11.0 | 0.00 | 0.00 | 0.00 | 21 | 998.3 |
| 20260504020217 | 67 | 0 | 4.0 | 9.0 | 0.00 | 0.00 | 0.00 | 20 | 998.5 |
| 20260504015216 | 67 | 0 | 4.0 | 6.0 | 0.00 | 0.00 | 0.00 | 20 | 998.7 |
| 20260504014217 | 68 | 0 | 2.0 | 4.0 | 0.00 | 0.00 | 0.00 | 20 | 999.0 |
| 20260504013216 | 68 | 0 | 3.0 | 6.0 | 0.00 | 0.00 | 0.00 | 19 | 999.2 |
| 20260504012217 | 69 | 0 | 4.0 | 8.0 | 0.00 | 0.00 | 0.00 | 19 | 999.5 |
| 20260504011216 | 70 | 0 | 3.0 | 8.0 | 0.00 | 0.00 | 0.00 | 18 | 999.6 |
| 20260504010217 | 70 | 0 | 2.0 | 4.0 | 0.00 | 0.00 | 0.00 | 18 | 999.9 |
| 20260504005216 | 71 | 0 | 5.0 | 9.0 | 0.00 | 0.00 | 0.00 | 17 | 1000.3 |
| 20260504004216 | 71 | 0 | 4.0 | 6.0 | 0.00 | 0.00 | 0.00 | 16 | 1000.4 |
| 20260504003216 | 71 | 0 | 4.0 | 6.0 | 0.00 | 0.00 | 0.00 | 16 | 1000.7 |
| 20260504002236 | 71 | 0 | 5.0 | 11.0 | 0.00 | 0.00 | 0.00 | 15 | 1001.0 |
| 20260504001216 | 72 | 248 | 6.0 | 10.0 | 0.00 | 0.00 | 0.00 | 14 | 1001.2 |
| 20260504000219 | 72 | 225 | 6.0 | 13.0 | 0.00 | 0.00 | 0.00 | 14 | 1001.3 |
| 20260503235216 | 73 | 248 | 7.0 | 9.0 | 0.00 | 0.00 | 0.00 | 13 | 1001.3 |
| 20260503234237 | 73 | 225 | 7.0 | 10.0 | 0.00 | 0.00 | 0.00 | 13 | 1001.6 |
| 20260503233216 | 73 | 225 | 8.0 | 11.0 | 0.00 | 0.00 | 0.00 | 13 | 1002.0 |
| 20260503232216 | 73 | 248 | 9.0 | 14.0 | 0.00 | 0.00 | 0.00 | 14 | 1002.1 |
| 20260503231236 | 72 | 270 | 9.0 | 13.0 | 0.00 | 0.00 | 0.00 | 14 | 1002.4 |
| 20260503230216 | 73 | 270 | 12.0 | 18.0 | 0.00 | 0.00 | 0.00 | 13 | 1002.5 |
| 20260503225217 | 74 | 270 | 6.0 | 11.0 | 0.00 | 0.00 | 0.00 | 15 | 1002.8 |
| 20260503224236 | 74 | 248 | 8.0 | 12.0 | 0.00 | 0.00 | 0.00 | 13 | 1002.8 |
| 20260503223236 | 74 | 225 | 10.0 | 16.0 | 0.00 | 0.00 | 0.00 | 14 | 1003.0 |
| 20260503222216 | 74 | 248 | 12.0 | 18.0 | 0.00 | 0.00 | 0.00 | 13 | 1003.1 |
| 20260503221216 | 74 | 270 | 4.0 | 9.0 | 0.00 | 0.00 | 0.00 | 16 | 1003.4 |
| 20260503220216 | 73 | 248 | 9.0 | 13.0 | 0.00 | 0.00 | 0.00 | 14 | 1003.7 |
| 20260503215216 | 74 | 225 | 8.0 | 14.0 | 0.00 | 0.00 | 0.00 | 15 | 1003.9 |
| 20260503214236 | 74 | 0 | 12.0 | 19.0 | 0.00 | 0.00 | 0.00 | 16 | 1004.1 |
| 20260503213216 | 73 | 270 | 8.0 | 12.0 | 0.00 | 0.00 | 0.00 | 16 | 1004.3 |
| 20260503212216 | 73 | 225 | 6.0 | 14.0 | 0.00 | 0.00 | 0.00 | 17 | 1004.4 |
| 20260503211216 | 73 | 248 | 10.0 | 16.0 | 0.00 | 0.00 | 0.00 | 16 | 1004.7 |
| 20260503210216 | 73 | 248 | 6.0 | 10.0 | 0.00 | 0.00 | 0.00 | 16 | 1004.9 |
| 20260503205216 | 73 | 248 | 7.0 | 11.0 | 0.00 | 0.00 | 0.00 | 16 | 1005.2 |
| 20260503204216 | 73 | 270 | 5.0 | 11.0 | 0.00 | 0.00 | 0.00 | 17 | 1005.4 |
| 20260503203216 | 72 | 270 | 9.0 | 12.0 | 0.00 | 0.00 | 0.00 | 18 | 1005.6 |
| 20260503202216 | 72 | 293 | 6.0 | 9.0 | 0.00 | 0.00 | 0.00 | 20 | 1005.8 |
| 20260503201216 | 71 | 293 | 6.0 | 11.0 | 0.00 | 0.00 | 0.00 | 16 | 1006.2 |
| 20260503200236 | 71 | 0 | 8.0 | 10.0 | 0.00 | 0.00 | 0.00 | 17 | 1006.4 |
| 20260503195236 | 71 | 270 | 6.0 | 8.0 | 0.00 | 0.00 | 0.00 | 21 | 1006.7 |
| 20260503194216 | 70 | 0 | 8.0 | 11.0 | 0.00 | 0.00 | 0.00 | 19 | 1006.9 |
| 20260503193216 | 70 | 0 | 10.0 | 15.0 | 0.00 | 0.00 | 0.00 | 19 | 1007.2 |
| 20260503192216 | 69 | 270 | 6.0 | 12.0 | 0.00 | 0.00 | 0.00 | 20 | 1007.2 |
| 20260503191216 | 69 | 0 | 7.0 | 12.0 | 0.00 | 0.00 | 0.00 | 19 | 1007.6 |
| 20260503190215 | 68 | 0 | 4.0 | 8.0 | 0.00 | 0.00 | 0.00 | 19 | 1007.8 |
| 20260503185216 | 68 | 0 | 5.0 | 8.0 | 0.00 | 0.00 | 0.00 | 19 | 1008.0 |
| 20260503184216 | 68 | 0 | 6.0 | 9.0 | 0.00 | 0.00 | 0.00 | 20 | 1008.3 |
| 20260503183216 | 67 | 0 | 7.0 | 11.0 | 0.00 | 0.00 | 0.00 | 20 | 1008.6 |
| 20260503182216 | 67 | 0 | 8.0 | 10.0 | 0.00 | 0.00 | 0.00 | 20 | 1008.9 |
| 20260503181216 | 67 | 0 | 7.0 | 10.0 | 0.00 | 0.00 | 0.00 | 21 | 1009.0 |
| 20260503180215 | 66 | 0 | 5.0 | 8.0 | 0.00 | 0.00 | 0.00 | 21 | 1009.1 |
| 20260503175215 | 66 | 0 | 7.0 | 11.0 | 0.00 | 0.00 | 0.00 | 21 | 1009.3 |
| 20260503174215 | 65 | 0 | 8.0 | 10.0 | 0.00 | 0.00 | 0.00 | 22 | 1009.5 |
| 20260503173216 | 65 | 0 | 4.0 | 8.0 | 0.00 | 0.00 | 0.00 | 23 | 1009.8 |
| 20260503172215 | 64 | 0 | 6.0 | 8.0 | 0.00 | 0.00 | 0.00 | 22 | 1009.8 |
| 20260503171215 | 64 | 0 | 7.0 | 13.0 | 0.00 | 0.00 | 0.00 | 23 | 1010.2 |
| 20260503170215 | 63 | 0 | 5.0 | 8.0 | 0.00 | 0.00 | 0.00 | 26 | 1010.2 |
| 20260503160215 | 60 | 0 | 4.0 | 6.0 | 0.00 | 0.00 | 0.00 | 29 | 1011.2 |
| 20260503150217 | 55 | 0 | 4.0 | 5.0 | 0.00 | 0.00 | 0.00 | 36 | 1011.6 |
| 20260503140217 | 51 | 338 | 3.0 | 4.0 | 0.00 | 0.00 | 0.00 | 43 | 1011.8 |
| 20260503131215 | 46 | 0 | 5.0 | 8.0 | 0.00 | 0.00 | 0.00 | 46 | 1011.8 |
| 20260503130217 | 45 | 0 | 3.0 | 4.0 | 0.00 | 0.00 | 0.00 | 47 | 1011.6 |
| 20260503120217 | 42 | 293 | 3.0 | 4.0 | 0.00 | 0.00 | 0.00 | 49 | 1011.0 |
| 20260503110216 | 44 | 338 | 5.0 | 7.0 | 0.00 | 0.00 | 0.00 | 47 | 1010.2 |
| 20260503100216 | 44 | 0 | 6.0 | 9.0 | 0.00 | 0.00 | 0.00 | 50 | 1010.3 |
| 20260503090216 | 45 | 0 | 5.0 | 8.0 | 0.00 | 0.00 | 0.00 | 54 | 1009.7 |
| 20260503081217 | 47 | 0 | 4.0 | 7.0 | 0.00 | 0.00 | 0.00 | 53 | 1009.6 |
| 20260503080216 | 48 | 338 | 5.0 | 9.0 | 0.00 | 0.00 | 0.00 | 53 | 1009.5 |
| 20260503072216 | 49 | 338 | 7.0 | 9.0 | 0.00 | 0.00 | 0.00 | 51 | 1009.3 |
| 20260503071216 | 49 | 315 | 6.0 | 10.0 | 0.00 | 0.00 | 0.00 | 51 | 1009.4 |
| 20260503070216 | 50 | 338 | 6.0 | 10.0 | 0.00 | 0.00 | 0.00 | 50 | 1009.4 |
| 20260503060216 | 51 | 0 | 9.0 | 11.0 | 0.00 | 0.00 | 0.00 | 50 | 1009.1 |
| 20260503054216 | 51 | 0 | 9.0 | 13.0 | 0.00 | 0.00 | 0.00 | 50 | 1008.7 |
| 20260503053336 | 52 | 0 | 7.0 | 11.0 | 0.00 | 0.00 | 0.00 | 49 | 1008.7 |
| 20260503052216 | 54 | 338 | 8.0 | 11.0 | 0.00 | 0.00 | 0.00 | 46 | 1008.6 |
| 20260503051216 | 55 | 0 | 11.0 | 14.0 | 0.00 | 0.00 | 0.00 | 43 | 1008.5 |
| 20260503050256 | 55 | 0 | 7.0 | 9.0 | 0.00 | 0.00 | 0.00 | 43 | 1008.2 |
| 20260503045216 | 55 | 0 | 9.0 | 13.0 | 0.00 | 0.00 | 0.00 | 42 | 1008.1 |
| 20260503044216 | 55 | 0 | 10.0 | 14.0 | 0.00 | 0.00 | 0.00 | 43 | 1008.0 |
| 20260503043216 | 56 | 0 | 11.0 | 15.0 | 0.00 | 0.00 | 0.00 | 44 | 1008.0 |
| 20260503042216 | 56 | 0 | 10.0 | 14.0 | 0.00 | 0.00 | 0.00 | 42 | 1008.0 |
| 20260503041236 | 57 | 0 | 9.0 | 15.0 | 0.00 | 0.00 | 0.00 | 42 | 1007.8 |
| 20260503040216 | 57 | 0 | 10.0 | 12.0 | 0.00 | 0.00 | 0.00 | 41 | 1007.7 |
| 20260503035216 | 58 | 0 | 12.0 | 16.0 | 0.00 | 0.00 | 0.00 | 40 | 1007.6 |
| 20260503034216 | 58 | 0 | 12.0 | 17.0 | 0.00 | 0.00 | 0.00 | 40 | 1007.4 |
| 20260503033216 | 59 | 0 | 11.0 | 13.0 | 0.00 | 0.00 | 0.00 | 39 | 1007.3 |
| 20260503032236 | 59 | 0 | 12.0 | 15.0 | 0.00 | 0.00 | 0.00 | 37 | 1007.2 |
| 20260503031216 | 61 | 0 | 12.0 | 17.0 | 0.00 | 0.00 | 0.00 | 36 | 1007.0 |
| 20260503030216 | 62 | 0 | 14.0 | 21.0 | 0.00 | 0.00 | 0.00 | 33 | 1006.8 |
| 20260503025216 | 63 | 0 | 12.0 | 15.0 | 0.00 | 0.00 | 0.00 | 30 | 1006.8 |